Regional Weather Roundup
Issued by NWS

Home | Current Version | Previous Version | Text Only | Print | Product List | Glossary On
Versions: 1 2 3 4 5 6 7 8 9 10 11 12 13 14 15 16 17 18 19 20 21 22 23 24 25 26 27 28 29 30 31 32 33 34 35 36 37 38 39 40 41 42 43 44 45 46 47 48 49 50
000
ASUS43 KLMK 181710
RWRKY
KENTUCKY REGIONAL WEATHER ROUNDUP
NATIONAL WEATHER SERVICE LOUISVILLE KY
100 PM EDT THU SEP 18 2014

NOTE "FAIR" INDICATES FEW OR NO CLOUDS BELOW 12,000 FEET
WITH NO SIGNIFICANT WEATHER AND/OR OBSTRUCTIONS TO VISIBILITY.

KYZ001>023-026-027-061>063-070>075-181800-
WESTERN AND SOUTH CENTRAL KENTUCKY

CITY           SKY/WX    TMP DP  RH WIND       PRES   REMARKS
PADUCAH        CLOUDY    78  59  51 E9        30.03S
HENDERSON      PTSUNNY   70  54  56 NE10      30.05F
OWENSBORO      PTSUNNY   71  55  56 NE10      30.06S
HOPKINSVILLE   NOT AVBL
BOWLING GREEN  MOSUNNY   73  56  54 E6        30.04F
GLASGOW        PTSUNNY   73  55  52 NE3       30.04F
$$

KYZ024-025-028>034-038-045-046-053-181800-
NORTH CENTRAL KENTUCKY

CITY           SKY/WX    TMP DP  RH WIND       PRES   REMARKS
LOUISVILLE/SDF PTSUNNY   71  51  49 E10       30.06F
LOUISVILLE/LOU SUNNY     70  50  49 NE12G18   30.07F
FORT KNOX      NOT AVBL
$$

KYZ035>037-039>044-047>052-055>060-089>105-181800-
NORTHEAST KENTUCKY

CITY           SKY/WX    TMP DP  RH WIND       PRES   REMARKS
LEXINGTON      MOSUNNY   71  54  54 NE10      30.08F
COVINGTON      MOSUNNY   70  47  43 NE9G24    30.09F
FRANKFORT      SUNNY     69  51  52 NE12      30.07F
$$

KYZ054-064>069-076>088-106>120-181800-
SOUTHEAST KENTUCKY

CITY           SKY/WX    TMP DP  RH WIND       PRES   REMARKS
JACKSON        PTSUNNY   66  53  63 CALM      30.08S
LONDON         PTSUNNY   71  54  54 VRB6      30.07F
SOMERSET       NOT AVBL
MIDDLESBORO    MOSUNNY   72  58  61 NE5       30.06F
MONTICELLO     PTSUNNY   74  57  55 VRB6      30.06F
$$




USA.gov is the U.S. government's official web portal to all federal, state and local government web resources and services.